| time (UTC) | temp F | wind direction | speed MPH | gust MPH | rain 1hr in | rain 24hr in | rain mn in | humidity % | barometer mb |
| 20260510230903 | 69 | 325 | 1.0 | 5.0 | 0.00 | 0.10 | 0.00 | 40 | 1019.2 |
| 20260510230004 | 69 | 330 | 2.0 | 5.0 | 0.00 | 0.10 | 0.00 | 38 | 1019.3 |
| 20260510225403 | 69 | 325 | 2.0 | 5.0 | 0.00 | 0.10 | 0.00 | 36 | 1019.3 |
| 20260510224503 | 70 | 325 | 3.0 | 10.0 | 0.00 | 0.10 | 0.00 | 38 | 1019.2 |
| 20260510223603 | 70 | 324 | 1.0 | 4.0 | 0.00 | 0.10 | 0.00 | 38 | 1019.1 |
| 20260510222724 | 70 | 326 | 2.0 | 8.0 | 0.00 | 0.10 | 0.00 | 42 | 1019.1 |
| 20260510221803 | 69 | 327 | 3.0 | 6.0 | 0.00 | 0.10 | 0.00 | 40 | 1019.1 |
| 20260510220924 | 69 | 326 | 1.0 | 6.0 | 0.00 | 0.10 | 0.00 | 40 | 1019.1 |
| 20260510220004 | 70 | 323 | 2.0 | 7.0 | 0.00 | 0.10 | 0.00 | 38 | 1019.2 |
| 20260510215403 | 70 | 321 | 1.0 | 3.0 | 0.00 | 0.10 | 0.00 | 41 | 1019.2 |
| 20260510214503 | 70 | 323 | 1.0 | 4.0 | 0.00 | 0.10 | 0.00 | 40 | 1019.3 |
| 20260510213603 | 69 | 324 | 1.0 | 4.0 | 0.00 | 0.10 | 0.00 | 41 | 1019.3 |
| 20260510212703 | 70 | 329 | 1.0 | 5.0 | 0.00 | 0.10 | 0.00 | 37 | 1019.4 |
| 20260510211803 | 70 | 323 | 2.0 | 5.0 | 0.00 | 0.10 | 0.00 | 36 | 1019.5 |
| 20260510210903 | 70 | 329 | 1.0 | 9.0 | 0.00 | 0.10 | 0.00 | 35 | 1019.5 |
| 20260510210004 | 69 | 332 | 1.0 | 6.0 | 0.00 | 0.10 | 0.00 | 37 | 1019.5 |
| 20260510205403 | 69 | 331 | 2.0 | 6.0 | 0.00 | 0.10 | 0.00 | 36 | 1019.5 |
| 20260510204524 | 69 | 328 | 2.0 | 9.0 | 0.00 | 0.10 | 0.00 | 36 | 1019.3 |
| 20260510203603 | 69 | 322 | 1.0 | 6.0 | 0.00 | 0.10 | 0.00 | 39 | 1019.2 |
| 20260510202703 | 69 | 330 | 0.0 | 4.0 | 0.00 | 0.10 | 0.00 | 40 | 1019.3 |
| 20260510201803 | 69 | 330 | 1.0 | 6.0 | 0.00 | 0.10 | 0.00 | 39 | 1019.4 |
| 20260510200903 | 69 | 329 | 1.0 | 3.0 | 0.00 | 0.10 | 0.00 | 39 | 1019.4 |
| 20260510200004 | 68 | 327 | 1.0 | 6.0 | 0.00 | 0.10 | 0.00 | 39 | 1019.4 |
| 20260510195403 | 68 | 327 | 1.0 | 6.0 | 0.00 | 0.10 | 0.00 | 41 | 1019.4 |
| 20260510194503 | 68 | 327 | 2.0 | 8.0 | 0.00 | 0.10 | 0.00 | 40 | 1019.3 |
| 20260510193624 | 68 | 327 | 2.0 | 6.0 | 0.00 | 0.10 | 0.00 | 45 | 1019.4 |
| 20260510192703 | 67 | 323 | 1.0 | 5.0 | 0.00 | 0.10 | 0.00 | 42 | 1019.4 |
| 20260510191824 | 68 | 323 | 1.0 | 3.0 | 0.00 | 0.10 | 0.00 | 43 | 1019.5 |
| 20260510190903 | 68 | 323 | 0.0 | 4.0 | 0.00 | 0.10 | 0.00 | 41 | 1019.4 |
| 20260510190024 | 68 | 316 | 0.0 | 3.0 | 0.00 | 0.10 | 0.00 | 41 | 1019.4 |
| 20260510185403 | 69 | 325 | 0.0 | 5.0 | 0.00 | 0.10 | 0.00 | 41 | 1019.5 |
| 20260510184503 | 68 | 321 | 1.0 | 5.0 | 0.00 | 0.10 | 0.00 | 44 | 1019.3 |
| 20260510183603 | 67 | 323 | 2.0 | 7.0 | 0.00 | 0.10 | 0.00 | 43 | 1019.3 |
| 20260510182703 | 67 | 324 | 1.0 | 6.0 | 0.00 | 0.10 | 0.00 | 47 | 1019.2 |
| 20260510181803 | 66 | 323 | 2.0 | 6.0 | 0.00 | 0.10 | 0.00 | 44 | 1019.2 |
| 20260510180924 | 66 | 324 | 1.0 | 4.0 | 0.00 | 0.10 | 0.00 | 45 | 1019.2 |
| 20260510180004 | 66 | 323 | 1.0 | 5.0 | 0.00 | 0.10 | 0.00 | 43 | 1019.3 |
| 20260510175403 | 65 | 323 | 1.0 | 7.0 | 0.00 | 0.10 | 0.00 | 46 | 1019.4 |
| 20260510174503 | 65 | 319 | 1.0 | 7.0 | 0.00 | 0.10 | 0.00 | 43 | 1019.5 |
| 20260510173603 | 66 | 326 | 3.0 | 10.0 | 0.00 | 0.10 | 0.00 | 41 | 1019.5 |
| 20260510172724 | 66 | 325 | 3.0 | 9.0 | 0.00 | 0.10 | 0.00 | 40 | 1019.6 |
| 20260510171803 | 65 | 321 | 1.0 | 5.0 | 0.00 | 0.10 | 0.00 | 47 | 1019.6 |
| 20260510170904 | 64 | 322 | 0.0 | 5.0 | 0.00 | 0.10 | 0.00 | 53 | 1019.6 |
| 20260510170004 | 64 | 325 | 1.0 | 4.0 | 0.00 | 0.10 | 0.00 | 54 | 1019.7 |
| 20260510165403 | 64 | 326 | 1.0 | 4.0 | 0.00 | 0.10 | 0.00 | 51 | 1019.6 |
| 20260510164503 | 64 | 324 | 1.0 | 10.0 | 0.00 | 0.10 | 0.00 | 49 | 1019.8 |
| 20260510163603 | 64 | 327 | 1.0 | 10.0 | 0.00 | 0.10 | 0.00 | 49 | 1019.8 |
| 20260510162703 | 64 | 325 | 2.0 | 7.0 | 0.00 | 0.10 | 0.00 | 50 | 1019.9 |
| 20260510161803 | 64 | 324 | 1.0 | 5.0 | 0.00 | 0.10 | 0.00 | 52 | 1019.9 |
| 20260510160903 | 63 | 320 | 1.0 | 4.0 | 0.00 | 0.10 | 0.00 | 53 | 1019.8 |
| 20260510160003 | 63 | 321 | 1.0 | 3.0 | 0.00 | 0.10 | 0.00 | 53 | 1019.9 |
| 20260510155403 | 63 | 323 | 1.0 | 6.0 | 0.00 | 0.10 | 0.00 | 51 | 1020.1 |
| 20260510154525 | 63 | 324 | 2.0 | 9.0 | 0.00 | 0.10 | 0.00 | 49 | 1019.9 |
| 20260510153603 | 64 | 326 | 1.0 | 5.0 | 0.00 | 0.10 | 0.00 | 51 | 1019.6 |
| 20260510152703 | 64 | 323 | 1.0 | 4.0 | 0.00 | 0.10 | 0.00 | 53 | 1019.3 |
| 20260510151803 | 63 | 319 | 1.0 | 5.0 | 0.00 | 0.10 | 0.00 | 54 | 1019.2 |
| 20260510150903 | 63 | 320 | 1.0 | 8.0 | 0.00 | 0.10 | 0.00 | 53 | 1019.2 |
| 20260510150003 | 62 | 321 | 1.0 | 10.0 | 0.00 | 0.10 | 0.00 | 52 | 1019.1 |
| 20260510145403 | 62 | 328 | 2.0 | 6.0 | 0.00 | 0.10 | 0.00 | 54 | 1019.2 |
| 20260510144503 | 63 | 326 | 3.0 | 12.0 | 0.00 | 0.10 | 0.00 | 52 | 1019.0 |
| 20260510143603 | 62 | 326 | 2.0 | 6.0 | 0.00 | 0.10 | 0.00 | 56 | 1018.7 |
| 20260510142703 | 62 | 328 | 1.0 | 6.0 | 0.00 | 0.10 | 0.00 | 58 | 1018.6 |
| 20260510141824 | 62 | 326 | 1.0 | 5.0 | 0.00 | 0.10 | 0.00 | 58 | 1018.5 |
| 20260510140903 | 61 | 323 | 1.0 | 4.0 | 0.00 | 0.10 | 0.00 | 59 | 1018.2 |
| 20260510140004 | 60 | 329 | 0.0 | 5.0 | 0.00 | 0.10 | 0.00 | 60 | 1018.2 |
| 20260510135403 | 60 | 325 | 1.0 | 5.0 | 0.00 | 0.10 | 0.00 | 62 | 1018.4 |
| 20260510134503 | 60 | 325 | 1.0 | 6.0 | 0.00 | 0.10 | 0.00 | 61 | 1018.4 |
| 20260510133624 | 59 | 323 | 1.0 | 4.0 | 0.00 | 0.10 | 0.00 | 64 | 1018.4 |
| 20260510132703 | 59 | 323 | 0.0 | 2.0 | 0.00 | 0.10 | 0.00 | 68 | 1018.5 |
| 20260510131803 | 58 | 328 | 0.0 | 4.0 | 0.00 | 0.10 | 0.00 | 70 | 1018.3 |
| 20260510130903 | 58 | 325 | 0.0 | 5.0 | 0.00 | 0.10 | 0.00 | 74 | 1018.2 |
| 20260510130003 | 57 | 324 | 1.0 | 5.0 | 0.00 | 0.10 | 0.00 | 72 | 1018.0 |
| 20260510125403 | 57 | 323 | 1.0 | 5.0 | 0.00 | 0.10 | 0.00 | 74 | 1017.9 |
| 20260510124503 | 56 | 320 | 0.0 | 3.0 | 0.00 | 0.10 | 0.00 | 78 | 1017.8 |
| 20260510123603 | 56 | 0 | 0.0 | 1.0 | 0.00 | 0.10 | 0.00 | 84 | 1017.6 |
| 20260510122703 | 55 | 0 | 0.0 | 0.0 | 0.00 | 0.10 | 0.00 | 87 | 1017.5 |
| 20260510121803 | 55 | 340 | 0.0 | 1.0 | 0.00 | 0.10 | 0.00 | 90 | 1017.5 |
| 20260510120903 | 54 | 340 | 0.0 | 1.0 | 0.00 | 0.10 | 0.00 | 93 | 1017.3 |
| 20260510120003 | 54 | 0 | 0.0 | 0.0 | 0.00 | 0.10 | 0.00 | 94 | 1017.1 |
| 20260510115403 | 54 | 0 | 0.0 | 0.0 | 0.00 | 0.10 | 0.00 | 94 | 1017.1 |
| 20260510114503 | 54 | 341 | 0.0 | 1.0 | 0.00 | 0.10 | 0.00 | 94 | 1016.9 |
| 20260510113603 | 54 | 0 | 0.0 | 0.0 | 0.00 | 0.10 | 0.00 | 94 | 1016.5 |
| 20260510112703 | 55 | 0 | 0.0 | 0.0 | 0.00 | 0.10 | 0.00 | 95 | 1016.1 |
| 20260510111803 | 55 | 0 | 0.0 | 0.0 | 0.00 | 0.10 | 0.00 | 95 | 1016.0 |
| 20260510110924 | 55 | 340 | 0.0 | 1.0 | 0.00 | 0.10 | 0.00 | 95 | 1015.9 |
| 20260510110024 | 55 | 0 | 0.0 | 0.0 | 0.00 | 0.10 | 0.00 | 95 | 1015.5 |
| 20260510105404 | 56 | 0 | 0.0 | 0.0 | 0.00 | 0.10 | 0.00 | 95 | 1015.7 |
| 20260510104503 | 56 | 0 | 0.0 | 0.0 | 0.00 | 0.10 | 0.00 | 95 | 1015.4 |
| 20260510103603 | 56 | 0 | 0.0 | 0.0 | 0.00 | 0.10 | 0.00 | 95 | 1015.4 |
| 20260510102724 | 56 | 0 | 0.0 | 0.0 | 0.00 | 0.10 | 0.00 | 95 | 1015.1 |
| 20260510101803 | 56 | 0 | 0.0 | 0.0 | 0.00 | 0.10 | 0.00 | 95 | 1015.1 |
| 20260510100903 | 57 | 0 | 0.0 | 0.0 | 0.00 | 0.10 | 0.00 | 95 | 1014.9 |
| 20260510100004 | 57 | 0 | 0.0 | 0.0 | 0.00 | 0.10 | 0.00 | 95 | 1014.9 |
| 20260510095403 | 57 | 0 | 0.0 | 0.0 | 0.00 | 0.10 | 0.00 | 94 | 1014.9 |
| 20260510094503 | 57 | 0 | 0.0 | 0.0 | 0.00 | 0.10 | 0.00 | 94 | 1014.8 |
| 20260510093603 | 58 | 0 | 0.0 | 0.0 | 0.00 | 0.10 | 0.00 | 94 | 1014.8 |
| 20260510092703 | 58 | 338 | 0.0 | 1.0 | 0.00 | 0.10 | 0.00 | 95 | 1014.7 |
| 20260510091804 | 58 | 332 | 0.0 | 1.0 | 0.00 | 0.10 | 0.00 | 95 | 1014.6 |
| 20260510090903 | 58 | 0 | 0.0 | 0.0 | 0.00 | 0.10 | 0.00 | 94 | 1014.4 |
| 20260510090003 | 58 | 0 | 0.0 | 0.0 | 0.00 | 0.10 | 0.00 | 94 | 1014.1 |
| 20260510085403 | 58 | 0 | 0.0 | 0.0 | 0.00 | 0.10 | 0.00 | 94 | 1013.9 |
| 20260510084524 | 58 | 0 | 0.0 | 0.0 | 0.00 | 0.10 | 0.00 | 94 | 1013.9 |
| 20260510083624 | 58 | 0 | 0.0 | 0.0 | 0.00 | 0.10 | 0.00 | 94 | 1013.7 |
| 20260510082724 | 58 | 0 | 0.0 | 0.0 | 0.00 | 0.10 | 0.00 | 94 | 1013.6 |
| 20260510081824 | 58 | 0 | 0.0 | 0.0 | 0.00 | 0.10 | 0.00 | 94 | 1013.4 |
| 20260510080904 | 59 | 0 | 0.0 | 0.0 | 0.00 | 0.10 | 0.00 | 94 | 1013.3 |
| 20260510080004 | 59 | 0 | 0.0 | 0.0 | 0.00 | 0.10 | 0.00 | 93 | 1012.9 |
| 20260510075424 | 59 | 0 | 0.0 | 0.0 | 0.00 | 0.10 | 0.00 | 94 | 1012.9 |
| 20260510074503 | 59 | 0 | 0.0 | 0.0 | 0.00 | 0.10 | 0.00 | 94 | 1013.1 |
| 20260510073603 | 59 | 0 | 0.0 | 1.0 | 0.00 | 0.10 | 0.00 | 93 | 1012.9 |
| 20260510072703 | 59 | 327 | 0.0 | 1.0 | 0.00 | 0.10 | 0.00 | 93 | 1012.6 |
| 20260510071803 | 60 | 327 | 0.0 | 1.0 | 0.00 | 0.10 | 0.00 | 93 | 1012.4 |
| 20260510070903 | 60 | 0 | 0.0 | 0.0 | 0.00 | 0.10 | 0.00 | 93 | 1012.3 |
| 20260510070004 | 60 | 0 | 0.0 | 0.0 | 0.00 | 0.10 | 0.00 | 93 | 1012.5 |
| 20260510065403 | 60 | 0 | 0.0 | 0.0 | 0.00 | 0.10 | 0.00 | 93 | 1012.6 |
| 20260510064503 | 60 | 0 | 0.0 | 0.0 | 0.00 | 0.10 | 0.00 | 93 | 1012.8 |
| 20260510063603 | 60 | 327 | 0.0 | 2.0 | 0.00 | 0.10 | 0.00 | 93 | 1012.7 |
| 20260510062703 | 60 | 324 | 0.0 | 1.0 | 0.00 | 0.10 | 0.00 | 92 | 1012.7 |
| 20260510061803 | 60 | 324 | 1.0 | 5.0 | 0.00 | 0.10 | 0.00 | 92 | 1012.5 |
| 20260510060903 | 61 | 323 | 0.0 | 2.0 | 0.00 | 0.10 | 0.00 | 93 | 1012.7 |
| 20260510060003 | 61 | 326 | 0.0 | 2.0 | 0.00 | 0.10 | 0.00 | 93 | 1012.1 |
| 20260510055424 | 61 | 328 | 0.0 | 2.0 | 0.01 | 0.10 | 0.00 | 92 | 1011.9 |
| 20260510054503 | 62 | 274 | 0.0 | 1.0 | 0.01 | 0.10 | 0.00 | 92 | 1011.9 |
| 20260510053603 | 62 | 321 | 0.0 | 2.0 | 0.03 | 0.10 | 0.00 | 92 | 1012.2 |
| 20260510052703 | 62 | 327 | 1.0 | 7.0 | 0.04 | 0.10 | 0.00 | 92 | 1011.9 |
| 20260510051824 | 61 | 134 | 0.0 | 2.0 | 0.04 | 0.10 | 0.00 | 92 | 1011.4 |
| 20260510050903 | 62 | 138 | 0.0 | 3.0 | 0.04 | 0.10 | 0.00 | 92 | 1011.1 |
| 20260510050005 | 61 | 146 | 0.0 | 3.0 | 0.05 | 0.10 | 0.00 | 93 | 1011.7 |
| 20260510045403 | 61 | 140 | 0.0 | 2.0 | 0.04 | 0.09 | 0.09 | 93 | 1011.9 |
| 20260510044524 | 61 | 141 | 0.0 | 2.0 | 0.05 | 0.09 | 0.09 | 92 | 1012.0 |
| 20260510043624 | 61 | 321 | 0.0 | 2.0 | 0.04 | 0.07 | 0.07 | 92 | 1012.4 |
| 20260510042724 | 61 | 320 | 0.0 | 1.0 | 0.05 | 0.06 | 0.06 | 92 | 1012.3 |
| 20260510041804 | 62 | 315 | 1.0 | 6.0 | 0.06 | 0.06 | 0.06 | 91 | 1011.9 |
| 20260510040903 | 62 | 320 | 2.0 | 9.0 | 0.06 | 0.06 | 0.06 | 91 | 1011.7 |
| 20260510040004 | 62 | 325 | 3.0 | 12.0 | 0.05 | 0.05 | 0.05 | 90 | 1012.4 |
| 20260510035403 | 62 | 328 | 3.0 | 12.0 | 0.05 | 0.05 | 0.05 | 90 | 1012.4 |
| 20260510034503 | 63 | 329 | 3.0 | 10.0 | 0.04 | 0.04 | 0.04 | 89 | 1012.5 |
| 20260510033603 | 64 | 331 | 3.0 | 10.0 | 0.03 | 0.04 | 0.03 | 86 | 1012.2 |
| 20260510032703 | 66 | 331 | 7.0 | 19.0 | 0.01 | 0.03 | 0.01 | 80 | 1012.5 |
| 20260510031803 | 68 | 329 | 3.0 | 12.0 | 0.00 | 0.03 | 0.00 | 70 | 1011.8 |
| 20260510030924 | 68 | 0 | 0.0 | 0.0 | 0.00 | 0.04 | 0.00 | 69 | 1009.9 |
| 20260510030003 | 67 | 0 | 0.0 | 0.0 | 0.00 | 0.06 | 0.00 | 67 | 1009.6 |
| 20260510025424 | 67 | 0 | 0.0 | 0.0 | 0.00 | 0.08 | 0.00 | 68 | 1009.5 |
| 20260510024524 | 67 | 0 | 0.0 | 0.0 | 0.00 | 0.11 | 0.00 | 67 | 1009.4 |
| 20260510023603 | 67 | 0 | 0.0 | 0.0 | 0.00 | 0.16 | 0.00 | 67 | 1009.3 |
| 20260510022703 | 67 | 0 | 0.0 | 0.0 | 0.00 | 0.19 | 0.00 | 68 | 1009.2 |
| 20260510021825 | 68 | 0 | 0.0 | 0.0 | 0.00 | 0.21 | 0.00 | 66 | 1009.2 |
| 20260510020903 | 68 | 0 | 0.0 | 0.0 | 0.00 | 0.22 | 0.00 | 65 | 1009.0 |
| 20260510020004 | 68 | 0 | 0.0 | 0.0 | 0.00 | 0.23 | 0.00 | 63 | 1008.7 |
| 20260510015403 | 69 | 0 | 0.0 | 0.0 | 0.00 | 0.23 | 0.00 | 63 | 1008.6 |
| 20260510014524 | 70 | 0 | 0.0 | 0.0 | 0.00 | 0.23 | 0.00 | 60 | 1008.4 |
| 20260510013603 | 71 | 0 | 0.0 | 0.0 | 0.00 | 0.23 | 0.00 | 59 | 1008.3 |
| 20260510012703 | 72 | 0 | 0.0 | 0.0 | 0.00 | 0.23 | 0.00 | 57 | 1008.3 |
| 20260510011803 | 73 | 0 | 0.0 | 0.0 | 0.00 | 0.23 | 0.00 | 55 | 1008.3 |
| 20260510010903 | 74 | 0 | 0.0 | 0.0 | 0.00 | 0.23 | 0.00 | 51 | 1008.3 |
| 20260510010004 | 76 | 0 | 0.0 | 0.0 | 0.00 | 0.23 | 0.00 | 49 | 1008.2 |
| 20260510005403 | 76 | 0 | 0.0 | 0.0 | 0.00 | 0.23 | 0.00 | 47 | 1008.2 |
| 20260510004503 | 77 | 0 | 0.0 | 0.0 | 0.00 | 0.24 | 0.00 | 43 | 1008.0 |
| 20260510003603 | 78 | 0 | 0.0 | 0.0 | 0.00 | 0.24 | 0.00 | 42 | 1008.0 |
| 20260510002703 | 78 | 191 | 0.0 | 1.0 | 0.00 | 0.24 | 0.00 | 41 | 1007.9 |
| 20260510001803 | 79 | 290 | 0.0 | 2.0 | 0.00 | 0.25 | 0.00 | 40 | 1007.9 |
| 20260510000925 | 79 | 0 | 0.0 | 0.0 | 0.00 | 0.25 | 0.00 | 41 | 1007.8 |
| 20260510000004 | 79 | 225 | 0.0 | 1.0 | 0.00 | 0.25 | 0.00 | 41 | 1007.7 |
| 20260509235403 | 79 | 153 | 0.0 | 2.0 | 0.00 | 0.25 | 0.00 | 41 | 1007.7 |
| 20260509234503 | 80 | 338 | 0.0 | 3.0 | 0.00 | 0.25 | 0.00 | 44 | 1007.7 |
| 20260509233603 | 80 | 324 | 0.0 | 3.0 | 0.00 | 0.25 | 0.00 | 40 | 1007.7 |
| 20260509232703 | 80 | 341 | 0.0 | 3.0 | 0.00 | 0.25 | 0.00 | 40 | 1007.6 |
| 20260509231824 | 80 | 228 | 0.0 | 2.0 | 0.00 | 0.25 | 0.00 | 42 | 1007.6 |